Year,Month,Day,Hour,Minute,Value (Times are PST for temperature in C)
2007,08,31,00,00,14.70
2007,08,31,00,01,14.70
2007,08,31,00,02,14.60
2007,08,31,00,03,14.60
2007,08,31,00,04,14.60
2007,08,31,00,05,14.60
2007,08,31,00,06,14.50
2007,08,31,00,07,14.50
2007,08,31,00,08,14.50
2007,08,31,00,09,14.50
2007,08,31,00,10,14.50
2007,08,31,00,11,14.50
2007,08,31,00,12,14.50
2007,08,31,00,13,14.50
2007,08,31,00,14,14.50
2007,08,31,00,15,14.50
2007,08,31,00,16,14.60
2007,08,31,00,17,14.70
2007,08,31,00,18,14.70
2007,08,31,00,19,14.80
2007,08,31,00,20,14.80
2007,08,31,00,21,14.80
2007,08,31,00,22,14.80
2007,08,31,00,23,14.80
2007,08,31,00,24,14.80
2007,08,31,00,25,14.80
2007,08,31,00,26,14.80
2007,08,31,00,27,14.80
2007,08,31,00,28,14.80
2007,08,31,00,29,14.80
2007,08,31,00,30,14.80
2007,08,31,00,31,14.80
2007,08,31,00,32,14.80
2007,08,31,00,33,14.80
2007,08,31,00,34,14.80
2007,08,31,00,35,14.80
2007,08,31,00,36,14.80
2007,08,31,00,37,14.80
2007,08,31,00,38,14.80
2007,08,31,00,39,14.80
2007,08,31,00,40,14.80
2007,08,31,00,41,14.80
2007,08,31,00,42,14.80
2007,08,31,00,43,14.80
2007,08,31,00,44,14.80
2007,08,31,00,45,14.80
2007,08,31,00,46,14.70
2007,08,31,00,47,14.70
2007,08,31,00,48,14.70
2007,08,31,00,49,14.70
2007,08,31,00,50,14.60
2007,08,31,00,51,14.60
2007,08,31,00,52,14.60
2007,08,31,00,53,14.50
2007,08,31,00,54,14.50
2007,08,31,00,55,14.50
2007,08,31,00,56,14.40
2007,08,31,00,57,14.50
2007,08,31,00,58,14.50
2007,08,31,00,59,14.50
2007,08,31,01,00,14.50
2007,08,31,01,01,14.50
2007,08,31,01,02,14.60
2007,08,31,01,03,14.70
2007,08,31,01,04,14.80
2007,08,31,01,05,14.80
2007,08,31,01,06,14.90
2007,08,31,01,07,15.00
2007,08,31,01,08,15.10
2007,08,31,01,09,15.10
2007,08,31,01,10,15.20
2007,08,31,01,11,15.20
2007,08,31,01,12,15.30
2007,08,31,01,13,15.30
2007,08,31,01,14,15.30
2007,08,31,01,15,15.30
2007,08,31,01,16,15.30
2007,08,31,01,17,15.30
2007,08,31,01,18,15.30
2007,08,31,01,19,15.30
2007,08,31,01,20,15.30
2007,08,31,01,21,15.30
2007,08,31,01,22,15.30
2007,08,31,01,23,15.30
2007,08,31,01,24,15.30
2007,08,31,01,25,15.30
2007,08,31,01,26,15.30
2007,08,31,01,27,15.30
2007,08,31,01,28,15.30
2007,08,31,01,29,15.30
2007,08,31,01,30,15.30
2007,08,31,01,31,15.40
2007,08,31,01,32,15.40
2007,08,31,01,33,15.40
2007,08,31,01,34,15.40
2007,08,31,01,35,15.40
2007,08,31,01,36,15.40
2007,08,31,01,37,15.50
2007,08,31,01,38,15.50
2007,08,31,01,39,15.50
2007,08,31,01,40,15.60
2007,08,31,01,41,15.60
2007,08,31,01,42,15.70
2007,08,31,01,43,15.70
2007,08,31,01,44,15.80
2007,08,31,01,45,15.80
2007,08,31,01,46,15.80
2007,08,31,01,47,15.80
2007,08,31,01,48,15.90
2007,08,31,01,49,15.90
2007,08,31,01,50,15.90
2007,08,31,01,51,16.00
2007,08,31,01,52,16.10
2007,08,31,01,53,16.10
2007,08,31,01,54,16.10
2007,08,31,01,55,16.20
2007,08,31,01,56,16.20
2007,08,31,01,57,16.20
2007,08,31,01,58,16.20
2007,08,31,01,59,16.30
2007,08,31,02,00,16.30
2007,08,31,02,01,16.40
2007,08,31,02,02,16.40
2007,08,31,02,03,16.40
2007,08,31,02,04,16.50
2007,08,31,02,05,16.60
2007,08,31,02,06,16.60
2007,08,31,02,07,16.60
2007,08,31,02,08,16.60
2007,08,31,02,09,16.70
2007,08,31,02,10,16.70
2007,08,31,02,11,16.70
2007,08,31,02,12,16.70
2007,08,31,02,13,16.70
2007,08,31,02,14,16.70
2007,08,31,02,15,16.70
2007,08,31,02,16,16.70
2007,08,31,02,17,16.70
2007,08,31,02,18,16.80
2007,08,31,02,19,16.80
2007,08,31,02,20,16.90
2007,08,31,02,21,16.90
2007,08,31,02,22,17.00
2007,08,31,02,23,17.00
2007,08,31,02,24,17.10
2007,08,31,02,25,17.10
2007,08,31,02,26,17.20
2007,08,31,02,27,17.20
2007,08,31,02,28,17.20
2007,08,31,02,29,17.10
2007,08,31,02,30,17.10
2007,08,31,02,31,17.10
2007,08,31,02,32,17.00
2007,08,31,02,33,17.00
2007,08,31,02,34,17.00
2007,08,31,02,35,16.90
2007,08,31,02,36,16.90
2007,08,31,02,37,16.90
2007,08,31,02,38,16.80
2007,08,31,02,39,16.80
2007,08,31,02,40,16.70
2007,08,31,02,41,16.70
2007,08,31,02,42,16.70
2007,08,31,02,43,16.70
2007,08,31,02,44,16.70
2007,08,31,02,45,16.70
2007,08,31,02,46,16.70
2007,08,31,02,47,16.70
2007,08,31,02,48,16.70
2007,08,31,02,49,16.60
2007,08,31,02,50,16.60
2007,08,31,02,51,16.60
2007,08,31,02,52,16.60
2007,08,31,02,53,16.60
2007,08,31,02,54,16.60
2007,08,31,02,55,16.60
2007,08,31,02,56,16.60
2007,08,31,02,57,16.60
2007,08,31,02,58,16.60
2007,08,31,02,59,16.60
2007,08,31,03,00,16.60
2007,08,31,03,01,16.60
2007,08,31,03,02,16.60
2007,08,31,03,03,16.60
2007,08,31,03,04,16.70
2007,08,31,03,05,16.70
2007,08,31,03,06,16.60
2007,08,31,03,07,16.60
2007,08,31,03,08,16.60
2007,08,31,03,09,16.60
2007,08,31,03,10,16.60
2007,08,31,03,11,16.60
2007,08,31,03,12,16.60
2007,08,31,03,13,16.60
2007,08,31,03,14,16.60
2007,08,31,03,15,16.60
2007,08,31,03,16,16.60
2007,08,31,03,17,16.50
2007,08,31,03,18,16.40
2007,08,31,03,19,16.40
2007,08,31,03,20,16.40
2007,08,31,03,21,16.40
2007,08,31,03,22,16.40
2007,08,31,03,23,16.40
2007,08,31,03,24,16.40
2007,08,31,03,25,16.40
2007,08,31,03,26,16.40
2007,08,31,03,27,16.30
2007,08,31,03,28,16.30
2007,08,31,03,29,16.30
2007,08,31,03,30,16.30
2007,08,31,03,31,16.30
2007,08,31,03,32,16.20
2007,08,31,03,33,16.20
2007,08,31,03,34,16.10
2007,08,31,03,35,16.10
2007,08,31,03,36,16.00
2007,08,31,03,37,15.90
2007,08,31,03,38,15.80
2007,08,31,03,39,15.80
2007,08,31,03,40,15.80
2007,08,31,03,41,15.80
2007,08,31,03,42,15.80
2007,08,31,03,43,15.80
2007,08,31,03,44,15.70
2007,08,31,03,45,15.70
2007,08,31,03,46,15.70
2007,08,31,03,47,15.70
2007,08,31,03,48,15.70
2007,08,31,03,49,15.80
2007,08,31,03,50,15.80
2007,08,31,03,51,15.80
2007,08,31,03,52,15.80
2007,08,31,03,53,15.80
2007,08,31,03,54,15.80
2007,08,31,03,55,15.80
2007,08,31,03,56,15.80
2007,08,31,03,57,15.90
2007,08,31,03,58,15.90
2007,08,31,03,59,15.90
2007,08,31,04,00,15.90
2007,08,31,04,01,16.10
2007,08,31,04,02,16.10
2007,08,31,04,03,16.10
2007,08,31,04,04,16.10
2007,08,31,04,05,16.10
2007,08,31,04,06,16.10
2007,08,31,04,07,16.00
2007,08,31,04,08,15.90
2007,08,31,04,09,15.90
2007,08,31,04,10,15.90
2007,08,31,04,11,15.90
2007,08,31,04,12,15.90
2007,08,31,04,13,15.90
2007,08,31,04,14,15.90
2007,08,31,04,15,15.90
2007,08,31,04,16,15.90
2007,08,31,04,17,15.90
2007,08,31,04,18,15.90
2007,08,31,04,19,15.90
2007,08,31,04,20,15.80
2007,08,31,04,21,15.80
2007,08,31,04,22,15.80
2007,08,31,04,23,15.80
2007,08,31,04,24,15.80
2007,08,31,04,25,15.80
2007,08,31,04,26,15.80
2007,08,31,04,27,15.80
2007,08,31,04,28,15.80
2007,08,31,04,29,15.80
2007,08,31,04,30,15.80
2007,08,31,04,31,15.80
2007,08,31,04,32,15.70
2007,08,31,04,33,15.70
2007,08,31,04,34,15.70
2007,08,31,04,35,15.60
2007,08,31,04,36,15.60
2007,08,31,04,37,15.60
2007,08,31,04,38,15.60
2007,08,31,04,39,15.50
2007,08,31,04,40,15.50
2007,08,31,04,41,15.50
2007,08,31,04,42,15.50
2007,08,31,04,43,15.50
2007,08,31,04,44,15.40
2007,08,31,04,45,15.40
2007,08,31,04,46,15.40
2007,08,31,04,47,15.40
2007,08,31,04,48,15.30
2007,08,31,04,49,15.30
2007,08,31,04,50,15.30
2007,08,31,04,51,15.30
2007,08,31,04,52,15.30
2007,08,31,04,53,15.30
2007,08,31,04,54,15.30
2007,08,31,04,55,15.30
2007,08,31,04,56,15.30
2007,08,31,04,57,15.30
2007,08,31,04,58,15.30
2007,08,31,04,59,15.30
2007,08,31,05,00,15.20
2007,08,31,05,01,15.20
2007,08,31,05,02,15.20
2007,08,31,05,03,15.20
2007,08,31,05,04,15.20
2007,08,31,05,05,15.20
2007,08,31,05,06,15.20
2007,08,31,05,07,15.20
2007,08,31,05,08,15.20
2007,08,31,05,09,15.20
2007,08,31,05,10,15.20
2007,08,31,05,11,15.20
2007,08,31,05,12,15.10
2007,08,31,05,13,15.10
2007,08,31,05,14,15.10
2007,08,31,05,15,15.10
2007,08,31,05,16,15.10
2007,08,31,05,17,15.10
2007,08,31,05,18,15.10
2007,08,31,05,19,15.10
2007,08,31,05,20,15.10
2007,08,31,05,21,15.10
2007,08,31,05,22,15.00
2007,08,31,05,23,15.00
2007,08,31,05,24,15.00
2007,08,31,05,25,15.00
2007,08,31,05,26,15.00
2007,08,31,05,27,15.00
2007,08,31,05,28,15.00
2007,08,31,05,29,15.00
2007,08,31,05,30,15.00
2007,08,31,05,31,15.00
2007,08,31,05,32,14.90
2007,08,31,05,33,14.90
2007,08,31,05,34,14.90
2007,08,31,05,35,14.90
2007,08,31,05,36,14.90
2007,08,31,05,37,14.90
2007,08,31,05,38,14.90
2007,08,31,05,39,14.90
2007,08,31,05,40,14.90
2007,08,31,05,41,15.00
2007,08,31,05,42,15.00
2007,08,31,05,43,15.00
2007,08,31,05,44,15.00
2007,08,31,05,45,15.00
2007,08,31,05,46,15.00
2007,08,31,05,47,15.00
2007,08,31,05,48,15.00
2007,08,31,05,49,15.10
2007,08,31,05,50,15.10
2007,08,31,05,51,15.10
2007,08,31,05,52,15.10
2007,08,31,05,53,15.10
2007,08,31,05,54,15.10
2007,08,31,05,55,15.10
2007,08,31,05,56,15.20
2007,08,31,05,57,15.20
2007,08,31,05,58,15.10
2007,08,31,05,59,15.00
2007,08,31,06,00,15.00
2007,08,31,06,01,14.90
2007,08,31,06,02,14.90
2007,08,31,06,03,14.80
2007,08,31,06,04,14.80
2007,08,31,06,05,14.80
2007,08,31,06,06,14.80
2007,08,31,06,07,14.80
2007,08,31,06,08,14.80
2007,08,31,06,09,14.70
2007,08,31,06,10,14.70
2007,08,31,06,11,14.70
2007,08,31,06,12,14.60
2007,08,31,06,13,14.60
2007,08,31,06,14,14.60
2007,08,31,06,15,14.60
2007,08,31,06,16,14.50
2007,08,31,06,17,14.50
2007,08,31,06,18,14.50
2007,08,31,06,19,14.50
2007,08,31,06,20,14.50
2007,08,31,06,21,14.40
2007,08,31,06,22,14.40
2007,08,31,06,23,14.40
2007,08,31,06,24,14.30
2007,08,31,06,25,14.30
2007,08,31,06,26,14.30
2007,08,31,06,27,14.30
2007,08,31,06,28,14.20
2007,08,31,06,29,14.20
2007,08,31,06,30,14.20
2007,08,31,06,31,14.20
2007,08,31,06,32,14.20
2007,08,31,06,33,14.20
2007,08,31,06,34,14.20
2007,08,31,06,35,14.20
2007,08,31,06,36,14.20
2007,08,31,06,37,14.20
2007,08,31,06,38,14.10
2007,08,31,06,39,14.10
2007,08,31,06,40,14.10
2007,08,31,06,41,14.10
2007,08,31,06,42,14.10
2007,08,31,06,43,14.10
2007,08,31,06,44,14.10
2007,08,31,06,45,14.10
2007,08,31,06,46,14.10
2007,08,31,06,47,14.10
2007,08,31,06,48,14.10
2007,08,31,06,49,14.10
2007,08,31,06,50,14.10
2007,08,31,06,51,14.10
2007,08,31,06,52,14.20
2007,08,31,06,53,14.20
2007,08,31,06,54,14.20
2007,08,31,06,55,14.20
2007,08,31,06,56,14.20
2007,08,31,06,57,14.20
2007,08,31,06,58,14.20
2007,08,31,06,59,14.20
2007,08,31,07,00,14.30
2007,08,31,07,01,14.30
2007,08,31,07,02,14.30
2007,08,31,07,03,14.40
2007,08,31,07,04,14.40
2007,08,31,07,05,14.40
2007,08,31,07,06,14.50
2007,08,31,07,07,14.50
2007,08,31,07,08,14.50
2007,08,31,07,09,14.50
2007,08,31,07,10,14.60
2007,08,31,07,11,14.60
2007,08,31,07,12,14.60
2007,08,31,07,13,14.70
2007,08,31,07,14,14.70
2007,08,31,07,15,14.80
2007,08,31,07,16,14.80
2007,08,31,07,17,14.80
2007,08,31,07,18,14.80
2007,08,31,07,19,14.80
2007,08,31,07,20,14.90
2007,08,31,07,21,14.90
2007,08,31,07,22,14.90
2007,08,31,07,23,14.90
2007,08,31,07,24,15.00
2007,08,31,07,25,15.00
2007,08,31,07,26,15.00
2007,08,31,07,27,15.00
2007,08,31,07,28,15.00
2007,08,31,07,29,15.10
2007,08,31,07,30,15.10
2007,08,31,07,31,15.10
2007,08,31,07,32,15.10
2007,08,31,07,33,15.10
2007,08,31,07,34,15.10
2007,08,31,07,35,15.10
2007,08,31,07,36,15.10
2007,08,31,07,37,15.20
2007,08,31,07,38,15.20
2007,08,31,07,39,15.20
2007,08,31,07,40,15.20
2007,08,31,07,41,15.20
2007,08,31,07,42,15.20
2007,08,31,07,43,15.20
2007,08,31,07,44,15.20
2007,08,31,07,45,15.30
2007,08,31,07,46,15.30
2007,08,31,07,47,15.30
2007,08,31,07,48,15.30
2007,08,31,07,49,15.30
2007,08,31,07,50,15.30
2007,08,31,07,51,15.30
2007,08,31,07,52,15.30
2007,08,31,07,53,15.30
2007,08,31,07,54,15.40
2007,08,31,07,55,15.40
2007,08,31,07,56,15.50
2007,08,31,07,57,15.50
2007,08,31,07,58,15.50
2007,08,31,07,59,15.60
2007,08,31,08,00,15.60
2007,08,31,08,01,15.70
2007,08,31,08,02,15.70
2007,08,31,08,03,15.70
2007,08,31,08,04,15.80
2007,08,31,08,05,15.80
2007,08,31,08,06,15.80
2007,08,31,08,07,15.80
2007,08,31,08,08,15.80
2007,08,31,08,09,15.80
2007,08,31,08,10,15.80
2007,08,31,08,11,15.90
2007,08,31,08,12,15.90
2007,08,31,08,13,15.90
2007,08,31,08,14,16.00
2007,08,31,08,15,16.10
2007,08,31,08,16,16.10
2007,08,31,08,17,16.10
2007,08,31,08,18,16.10
2007,08,31,08,19,16.10
2007,08,31,08,20,16.10
2007,08,31,08,21,16.10
2007,08,31,08,22,16.10
2007,08,31,08,23,16.10
2007,08,31,08,24,15.90
2007,08,31,08,25,15.90
2007,08,31,08,26,15.80
2007,08,31,08,27,15.70
2007,08,31,08,28,15.60
2007,08,31,08,29,15.50
2007,08,31,08,30,15.40
2007,08,31,08,31,15.40
2007,08,31,08,32,15.40
2007,08,31,08,33,15.40
2007,08,31,08,34,15.40
2007,08,31,08,35,15.40
2007,08,31,08,36,15.40
2007,08,31,08,37,15.40
2007,08,31,08,38,15.40
2007,08,31,08,39,15.40
2007,08,31,08,40,15.40
2007,08,31,08,41,15.40
2007,08,31,08,42,15.40
2007,08,31,08,43,15.30
2007,08,31,08,44,15.30
2007,08,31,08,45,15.30
2007,08,31,08,46,15.30
2007,08,31,08,47,15.30
2007,08,31,08,48,15.30
2007,08,31,08,49,15.30
2007,08,31,08,50,15.30
2007,08,31,08,51,15.30
2007,08,31,08,52,15.30
2007,08,31,08,53,15.30
2007,08,31,08,54,15.30
2007,08,31,08,55,15.30
2007,08,31,08,56,15.30
2007,08,31,08,57,15.20
2007,08,31,08,58,15.20
2007,08,31,08,59,15.20
2007,08,31,09,00,15.20
2007,08,31,09,01,15.20
2007,08,31,09,02,15.20
2007,08,31,09,03,15.20
2007,08,31,09,04,15.30
2007,08,31,09,05,15.30
2007,08,31,09,06,15.30
2007,08,31,09,07,15.30
2007,08,31,09,08,15.30
2007,08,31,09,09,15.30
2007,08,31,09,10,15.30
2007,08,31,09,11,15.40
2007,08,31,09,12,15.40
2007,08,31,09,13,15.50
2007,08,31,09,14,15.60
2007,08,31,09,15,15.60
2007,08,31,09,16,15.60
2007,08,31,09,17,15.60
2007,08,31,09,18,15.60
2007,08,31,09,19,15.50
2007,08,31,09,20,15.50
2007,08,31,09,21,15.50
2007,08,31,09,22,15.60
2007,08,31,09,23,15.60
2007,08,31,09,24,15.60
2007,08,31,09,25,15.70
2007,08,31,09,26,15.70
2007,08,31,09,27,15.70
2007,08,31,09,28,15.70
2007,08,31,09,29,15.70
2007,08,31,09,30,15.80
2007,08,31,09,31,15.80
2007,08,31,09,32,15.80
2007,08,31,09,33,15.90
2007,08,31,09,34,15.90
2007,08,31,09,35,16.00
2007,08,31,09,36,16.00
2007,08,31,09,37,15.90
2007,08,31,09,38,15.90
2007,08,31,09,39,15.90
2007,08,31,09,40,15.90
2007,08,31,09,41,15.90
2007,08,31,09,42,15.90
2007,08,31,09,43,15.90
2007,08,31,09,44,15.90
2007,08,31,09,45,15.90
2007,08,31,09,46,16.00
2007,08,31,09,47,16.10
2007,08,31,09,48,16.10
2007,08,31,09,49,16.10
2007,08,31,09,50,16.10
2007,08,31,09,51,16.10
2007,08,31,09,52,16.10
2007,08,31,09,53,16.10
2007,08,31,09,54,16.10
2007,08,31,09,55,16.10
2007,08,31,09,56,16.10
2007,08,31,09,57,16.10
2007,08,31,09,58,16.10
2007,08,31,09,59,16.10
2007,08,31,10,00,16.10
2007,08,31,10,01,16.10
2007,08,31,10,02,16.20
2007,08,31,10,03,16.20
2007,08,31,10,04,16.20
2007,08,31,10,05,16.20
2007,08,31,10,06,16.20
2007,08,31,10,07,16.20
2007,08,31,10,08,16.20
2007,08,31,10,09,16.20
2007,08,31,10,10,16.20
2007,08,31,10,11,16.20
2007,08,31,10,12,16.30
2007,08,31,10,13,16.30
2007,08,31,10,14,16.30
2007,08,31,10,15,16.30
2007,08,31,10,16,16.30
2007,08,31,10,17,16.30
2007,08,31,10,18,16.30
2007,08,31,10,19,16.30
2007,08,31,10,20,16.30
2007,08,31,10,21,16.40
2007,08,31,10,22,16.40
2007,08,31,10,23,16.40
2007,08,31,10,24,16.40
2007,08,31,10,25,16.40
2007,08,31,10,26,16.40
2007,08,31,10,27,16.40
2007,08,31,10,28,16.40
2007,08,31,10,29,16.40
2007,08,31,10,30,16.40
2007,08,31,10,31,16.40
2007,08,31,10,32,16.40
2007,08,31,10,33,16.40
2007,08,31,10,34,16.40
2007,08,31,10,35,16.40
2007,08,31,10,36,16.40
2007,08,31,10,37,16.40
2007,08,31,10,38,16.30
2007,08,31,10,39,16.30
2007,08,31,10,40,16.30
2007,08,31,10,41,16.30
2007,08,31,10,42,16.30
2007,08,31,10,43,16.30
2007,08,31,10,44,16.30
2007,08,31,10,45,16.30
2007,08,31,10,46,16.30
2007,08,31,10,47,16.30
2007,08,31,10,48,16.40
2007,08,31,10,49,16.40
2007,08,31,10,50,16.40
2007,08,31,10,51,16.40
2007,08,31,10,52,16.40
2007,08,31,10,53,16.40
2007,08,31,10,54,16.40
2007,08,31,10,55,16.50
2007,08,31,10,56,16.60
2007,08,31,10,57,16.70
2007,08,31,10,58,16.60
2007,08,31,10,59,16.50
2007,08,31,11,00,16.40
2007,08,31,11,01,16.40
2007,08,31,11,02,16.30
2007,08,31,11,03,16.30
2007,08,31,11,04,16.20
2007,08,31,11,05,16.10
2007,08,31,11,06,16.10
2007,08,31,11,07,16.10
2007,08,31,11,08,16.00
2007,08,31,11,09,15.90
2007,08,31,11,10,15.90
2007,08,31,11,11,15.80
2007,08,31,11,12,15.80
2007,08,31,11,13,15.80
2007,08,31,11,14,15.70
2007,08,31,11,15,15.80
2007,08,31,11,16,15.80
2007,08,31,11,17,15.80
2007,08,31,11,18,15.80
2007,08,31,11,19,15.80
2007,08,31,11,20,15.80
2007,08,31,11,21,15.80
2007,08,31,11,22,15.80
2007,08,31,11,23,15.80
2007,08,31,11,24,15.90
2007,08,31,11,25,15.90
2007,08,31,11,26,16.00
2007,08,31,11,27,16.10
2007,08,31,11,28,16.10
2007,08,31,11,29,16.10
2007,08,31,11,30,16.10
2007,08,31,11,31,16.20
2007,08,31,11,32,16.20
2007,08,31,11,33,16.20
2007,08,31,11,34,16.30
2007,08,31,11,35,16.40
2007,08,31,11,36,16.40
2007,08,31,11,37,16.60
2007,08,31,11,38,16.60
2007,08,31,11,39,16.70
2007,08,31,11,40,16.70
2007,08,31,11,41,16.70
2007,08,31,11,42,16.80
2007,08,31,11,43,16.90
2007,08,31,11,44,17.00
2007,08,31,11,45,17.00
2007,08,31,11,46,17.10
2007,08,31,11,47,17.10
2007,08,31,11,48,17.20
2007,08,31,11,49,17.20
2007,08,31,11,50,17.20
2007,08,31,11,51,17.20
2007,08,31,11,52,17.20
2007,08,31,11,53,17.20
2007,08,31,11,54,17.30
2007,08,31,11,55,17.30
2007,08,31,11,56,17.30
2007,08,31,11,57,17.30
2007,08,31,11,58,17.40
2007,08,31,11,59,17.40
2007,08,31,12,00,17.40
2007,08,31,12,01,17.40
2007,08,31,12,02,17.40
2007,08,31,12,03,17.30
2007,08,31,12,04,17.30
2007,08,31,12,05,17.30
2007,08,31,12,06,17.30
2007,08,31,12,07,17.20
2007,08,31,12,08,17.20
2007,08,31,12,09,17.10
2007,08,31,12,10,17.10
2007,08,31,12,11,17.00
2007,08,31,12,12,17.00
2007,08,31,12,13,16.90
2007,08,31,12,14,16.90
2007,08,31,12,15,16.80
2007,08,31,12,16,16.70
2007,08,31,12,17,16.70
2007,08,31,12,18,16.70
2007,08,31,12,19,16.70
2007,08,31,12,20,16.70
2007,08,31,12,21,16.60
2007,08,31,12,22,16.50
2007,08,31,12,23,16.40
2007,08,31,12,24,16.40
2007,08,31,12,25,16.30
2007,08,31,12,26,16.20
2007,08,31,12,27,16.20
2007,08,31,12,28,16.10
2007,08,31,12,29,16.10
2007,08,31,12,30,16.10
2007,08,31,12,31,16.00
2007,08,31,12,32,15.90
2007,08,31,12,33,15.80
2007,08,31,12,34,15.80
2007,08,31,12,35,15.80
2007,08,31,12,36,15.70
2007,08,31,12,37,15.70
2007,08,31,12,38,15.60
2007,08,31,12,39,15.60
2007,08,31,12,40,15.60
2007,08,31,12,41,15.50
2007,08,31,12,42,15.40
2007,08,31,12,43,15.30
2007,08,31,12,44,15.30
2007,08,31,12,45,15.20
2007,08,31,12,46,15.10
2007,08,31,12,47,15.10
2007,08,31,12,48,15.00
2007,08,31,12,49,15.00
2007,08,31,12,50,15.00
2007,08,31,12,51,15.00
2007,08,31,12,52,15.00
2007,08,31,12,53,15.00
2007,08,31,12,54,15.00
2007,08,31,12,55,15.00
2007,08,31,12,56,15.00
2007,08,31,12,57,15.10
2007,08,31,12,58,15.10
2007,08,31,12,59,15.10
2007,08,31,13,00,15.10
2007,08,31,13,01,15.10
2007,08,31,13,02,15.10
2007,08,31,13,03,15.20
2007,08,31,13,04,15.20
2007,08,31,13,05,15.20
2007,08,31,13,06,15.20
2007,08,31,13,07,15.20
2007,08,31,13,08,15.30
2007,08,31,13,09,15.30
2007,08,31,13,10,15.30
2007,08,31,13,11,15.30
2007,08,31,13,12,15.30
2007,08,31,13,13,15.30
2007,08,31,13,14,15.30
2007,08,31,13,15,15.30
2007,08,31,13,16,15.20
2007,08,31,13,17,15.20
2007,08,31,13,18,15.10
2007,08,31,13,19,15.10
2007,08,31,13,20,15.00
2007,08,31,13,21,15.00
2007,08,31,13,22,14.90
2007,08,31,13,23,14.80
2007,08,31,13,24,14.80
2007,08,31,13,25,14.70
2007,08,31,13,26,14.70
2007,08,31,13,27,14.60
2007,08,31,13,28,14.60
2007,08,31,13,29,14.50
2007,08,31,13,30,14.50
2007,08,31,13,31,14.40
2007,08,31,13,32,14.30
2007,08,31,13,33,14.30
2007,08,31,13,34,14.30
2007,08,31,13,35,14.20
2007,08,31,13,36,14.20
2007,08,31,13,37,14.20
2007,08,31,13,38,14.20
2007,08,31,13,39,14.20
2007,08,31,13,40,14.20
2007,08,31,13,41,14.20
2007,08,31,13,42,14.20
2007,08,31,13,43,14.20
2007,08,31,13,44,14.20
2007,08,31,13,45,14.20
2007,08,31,13,46,14.20
2007,08,31,13,47,14.20
2007,08,31,13,48,14.20
2007,08,31,13,49,14.20
2007,08,31,13,50,14.20
2007,08,31,13,51,14.20
2007,08,31,13,52,14.20
2007,08,31,13,53,14.20
2007,08,31,13,54,14.20
2007,08,31,13,55,14.20
2007,08,31,13,56,14.20
2007,08,31,13,57,14.20
2007,08,31,13,58,14.10
2007,08,31,13,59,14.10
2007,08,31,14,00,14.10
2007,08,31,14,01,14.10
2007,08,31,14,02,14.10
2007,08,31,14,03,14.10
2007,08,31,14,04,14.10
2007,08,31,14,05,14.10
2007,08,31,14,06,14.20
2007,08,31,14,07,14.10
2007,08,31,14,08,14.10
2007,08,31,14,09,14.10
2007,08,31,14,10,14.10
2007,08,31,14,11,14.00
2007,08,31,14,12,14.00
2007,08,31,14,13,13.90
2007,08,31,14,14,13.90
2007,08,31,14,15,13.90
2007,08,31,14,16,13.90
2007,08,31,14,17,13.70
2007,08,31,14,18,13.70
2007,08,31,14,19,13.60
2007,08,31,14,20,13.60
2007,08,31,14,21,13.50
2007,08,31,14,22,13.50
2007,08,31,14,23,13.50
2007,08,31,14,24,13.50
2007,08,31,14,25,13.40
2007,08,31,14,26,13.30
2007,08,31,14,27,13.30
2007,08,31,14,28,13.30
2007,08,31,14,29,13.30
2007,08,31,14,30,13.30
2007,08,31,14,31,13.30
2007,08,31,14,32,13.30
2007,08,31,14,33,13.40
2007,08,31,14,34,13.40
2007,08,31,14,35,13.40
2007,08,31,14,36,13.30
2007,08,31,14,37,13.30
2007,08,31,14,38,13.30
2007,08,31,14,39,13.30
2007,08,31,14,40,13.30
2007,08,31,14,41,13.30
2007,08,31,14,42,13.30
2007,08,31,14,43,13.40
2007,08,31,14,44,13.40
2007,08,31,14,45,13.40
2007,08,31,14,46,13.50
2007,08,31,14,47,13.50
2007,08,31,14,48,13.50
2007,08,31,14,49,13.60
2007,08,31,14,50,13.60
2007,08,31,14,51,13.60
2007,08,31,14,52,13.60
2007,08,31,14,53,13.70
2007,08,31,14,54,13.70
2007,08,31,14,55,13.70
2007,08,31,14,56,13.90
2007,08,31,14,57,13.90
2007,08,31,14,58,14.00
2007,08,31,14,59,14.10
2007,08,31,15,00,14.10
2007,08,31,15,01,14.20
2007,08,31,15,02,14.20
2007,08,31,15,03,14.30
2007,08,31,15,04,14.40
2007,08,31,15,05,14.40
2007,08,31,15,06,14.40
2007,08,31,15,07,14.40
2007,08,31,15,08,14.50
2007,08,31,15,09,14.50
2007,08,31,15,10,14.60
2007,08,31,15,11,14.50
2007,08,31,15,12,14.50
2007,08,31,15,13,14.60
2007,08,31,15,14,14.60
2007,08,31,15,15,14.60
2007,08,31,15,16,14.70
2007,08,31,15,17,14.80
2007,08,31,15,18,14.80
2007,08,31,15,19,14.80
2007,08,31,15,20,14.80
2007,08,31,15,21,14.90
2007,08,31,15,22,15.00
2007,08,31,15,23,15.00
2007,08,31,15,24,15.10
2007,08,31,15,25,15.20
2007,08,31,15,26,15.20
2007,08,31,15,27,15.20
2007,08,31,15,28,15.20
2007,08,31,15,29,15.20
2007,08,31,15,30,15.10
2007,08,31,15,31,15.10
2007,08,31,15,32,15.20
2007,08,31,15,33,15.10
2007,08,31,15,34,15.20
2007,08,31,15,35,15.20
2007,08,31,15,36,15.20
2007,08,31,15,37,15.20
2007,08,31,15,38,15.30
2007,08,31,15,39,15.30
2007,08,31,15,40,15.40
2007,08,31,15,41,15.50
2007,08,31,15,42,15.50
2007,08,31,15,43,15.60
2007,08,31,15,44,15.70
2007,08,31,15,45,15.80
2007,08,31,15,46,15.90
2007,08,31,15,47,16.10
2007,08,31,15,48,16.10
2007,08,31,15,49,16.20
2007,08,31,15,50,16.30
2007,08,31,15,51,16.40
2007,08,31,15,52,16.60
2007,08,31,15,53,16.70
2007,08,31,15,54,16.80
2007,08,31,15,55,17.00
2007,08,31,15,56,17.10
2007,08,31,15,57,17.20
2007,08,31,15,58,17.30
2007,08,31,15,59,17.30
2007,08,31,16,00,17.30
2007,08,31,16,01,17.40
2007,08,31,16,02,17.40
2007,08,31,16,03,17.40
2007,08,31,16,04,17.40
2007,08,31,16,05,17.40
2007,08,31,16,06,17.40
2007,08,31,16,07,17.40
2007,08,31,16,08,17.40
2007,08,31,16,09,17.40
2007,08,31,16,10,17.50
2007,08,31,16,11,17.50
2007,08,31,16,12,17.50
2007,08,31,16,13,17.50
2007,08,31,16,14,17.50
2007,08,31,16,15,17.50
2007,08,31,16,16,17.50
2007,08,31,16,17,17.50
2007,08,31,16,18,17.50
2007,08,31,16,19,17.50
2007,08,31,16,20,17.50
2007,08,31,16,21,17.60
2007,08,31,16,22,17.60
2007,08,31,16,23,17.60
2007,08,31,16,24,17.60
2007,08,31,16,25,17.60
2007,08,31,16,26,17.70
2007,08,31,16,27,17.70
2007,08,31,16,28,17.80
2007,08,31,16,29,17.90
2007,08,31,16,30,17.90
2007,08,31,16,31,17.90
2007,08,31,16,32,17.90
2007,08,31,16,33,17.90
2007,08,31,16,34,17.90
2007,08,31,16,35,18.00
2007,08,31,16,36,18.10
2007,08,31,16,37,18.10
2007,08,31,16,38,17.90
2007,08,31,16,39,17.90
2007,08,31,16,40,17.90
2007,08,31,16,41,17.90
2007,08,31,16,42,17.90
2007,08,31,16,43,18.00
2007,08,31,16,44,18.10
2007,08,31,16,45,17.90
2007,08,31,16,46,17.90
2007,08,31,16,47,17.90
2007,08,31,16,48,18.00
2007,08,31,16,49,18.10
2007,08,31,16,50,18.10
2007,08,31,16,51,18.10
2007,08,31,16,52,18.20
2007,08,31,16,53,18.10
2007,08,31,16,54,18.10
2007,08,31,16,55,18.10
2007,08,31,16,56,18.10
2007,08,31,16,57,18.00
2007,08,31,16,58,18.10
2007,08,31,16,59,18.10
2007,08,31,17,00,18.10
2007,08,31,17,01,18.10
2007,08,31,17,02,18.10
2007,08,31,17,03,18.10
2007,08,31,17,04,18.20
2007,08,31,17,05,18.20
2007,08,31,17,06,18.30
2007,08,31,17,07,18.30
2007,08,31,17,08,18.30
2007,08,31,17,09,18.30
2007,08,31,17,10,18.30
2007,08,31,17,11,18.30
2007,08,31,17,12,18.30
2007,08,31,17,13,18.30
2007,08,31,17,14,18.30
2007,08,31,17,15,18.30
2007,08,31,17,16,18.30
2007,08,31,17,17,18.30
2007,08,31,17,18,18.30
2007,08,31,17,19,18.30